Wind_Speed
7 7 7 7 7 6 2 5 7 8 9 10 11 12 12 12 13 15 16 16 18 19 21 23 24 25 25 24 22 21 21 20 18 18 17 16 15 14 12 11 11 11 11 11 12 12 13 14 15 16 18 20 21 22 23 23 24 24 24 25 26 26 27 27 27 28 28 28 28 28 29 29 29 29 29 29 29 29 30 29 29 29 28 28 27
7 6 7 6 6 5 1 4 7 7 8 9 11 14 13 12 13 16 16 16 18 19 21 23 25 25 25 24 22 21 20 19 18 17 16 15 14 13 11 11 10 10 9 9 10 11 12 13 14 15 16 18 19 20 20 21 21 22 22 24 25 26 26 27 27 27 28 27 28 28 28 29 29 28 28 28 28 29 29 29 29 28 28 27 27
7 6 6 6 5 4 2 3 6 7 7 8 11 14 15 13 12 15 17 17 17 18 20 23 24 25 25 24 23 21 19 19 18 17 16 14 13 12 11 10 9 8 8 9 9 9 10 11 12 13 15 16 17 17 18 18 19 19 20 22 24 25 26 26 26 27 27 27 27 28 28 28 28 27 27 27 28 29 29 28 28 28 28 28 28
7 5 5 5 4 4 3 2 6 8 7 6 9 12 15 15 13 13 16 17 17 18 19 21 22 23 24 23 22 20 19 18 17 16 15 13 12 11 9 9 8 7 7 7 8 8 8 10 11 12 13 14 14 15 15 16 17 18 19 20 22 23 24 24 25 25 25 26 27 27 27 27 27 28 28 28 28 28 28 28 28 28 29 29 30
7 6 5 5 4 4 3 3 5 8 9 7 9 11 13 15 15 13 15 17 18 18 18 19 20 21 21 21 20 19 17 16 16 15 14 13 11 10 8 7 7 6 6 6 6 6 7 9 10 11 11 12 12 13 14 15 16 17 18 19 20 21 21 22 23 23 24 25 25 26 27 27 27 27 27 28 28 28 28 29 29 30 30 31 32
8 7 6 6 5 4 3 4 5 7 10 10 9 11 13 16 17 15 15 17 18 18 19 19 20 20 20 20 20 19 18 16 15 15 14 12 11 10 8 6 6 5 5 5 5 5 6 7 8 9 9 10 11 12 13 14 15 16 16 17 18 19 20 21 22 23 24 24 25 26 26 26 26 26 26 27 27 28 29 30 31 31 33 33 34
9 9 7 6 6 5 4 4 6 8 10 11 10 12 15 17 18 17 16 17 18 19 20 20 20 21 22 21 21 20 19 17 16 15 13 12 11 9 8 6 5 4 4 4 4 4 5 6 6 7 8 9 10 11 12 13 14 15 15 16 17 18 19 20 22 23 24 25 25 26 26 26 26 26 26 26 27 28 29 31 32 33 34 35 36
10 10 9 7 7 6 5 5 6 8 10 12 12 11 14 17 17 18 18 17 18 20 20 21 21 22 22 22 21 19 18 17 16 15 14 12 11 9 8 6 5 4 4 4 4 4 4 4 4 5 6 8 9 10 11 12 13 14 14 15 16 17 18 20 21 23 24 25 26 26 27 27 27 27 27 27 27 28 29 31 32 34 35 36 37
13 12 11 9 8 8 7 7 7 8 10 13 13 11 13 15 16 17 19 19 19 20 21 22 23 23 23 21 20 19 18 17 16 15 14 13 11 9 8 7 6 5 5 5 4 4 4 3 3 3 4 6 7 8 9 10 12 13 14 15 15 16 18 19 21 22 23 25 26 27 28 28 28 28 28 28 28 29 30 31 33 35 36 37 38
15 14 13 11 10 9 9 8 8 9 11 13 14 14 14 16 17 17 19 20 20 21 21 23 23 23 23 21 21 20 19 18 17 16 15 13 10 8 7 7 7 7 6 6 6 5 4 4 3 2 1 3 5 7 8 9 10 12 13 13 15 16 17 18 20 21 22 24 25 27 28 29 30 29 29 29 29 30 32 33 35 37 38 39 39
17 16 15 13 11 11 11 10 10 10 11 13 15 16 15 16 18 18 18 19 21 22 22 23 23 23 22 22 22 21 20 19 18 17 16 14 11 10 8 8 8 8 8 8 7 6 5 5 5 4 2 1 3 5 7 8 9 11 12 13 13 15 16 17 18 20 21 23 25 27 28 30 30 30 30 30 30 31 33 35 37 39 40 40 40
19 18 18 16 13 13 13 13 12 12 12 13 15 17 17 16 17 17 18 20 22 23 23 23 22 22 22 22 23 22 21 20 19 18 17 16 14 12 10 9 9 9 9 9 8 7 7 6 6 6 5 3 2 4 6 7 8 10 11 12 13 14 15 16 17 18 20 22 25 27 29 30 31 31 31 31 31 33 34 37 40 41 42 41 39
21 20 20 18 16 15 15 14 15 14 14 14 15 18 18 17 16 17 19 20 22 23 23 23 22 22 23 23 23 23 22 21 20 19 18 16 14 13 12 11 10 10 10 10 9 9 8 7 7 7 7 5 4 4 5 6 7 9 10 11 12 13 14 15 16 17 19 22 24 26 28 30 31 32 32 32 32 34 36 39 41 42 42 41 38
22 21 22 20 18 18 17 16 17 17 16 16 16 17 19 20 18 18 19 20 22 22 23 23 23 23 23 24 24 23 22 21 21 20 18 16 15 14 13 12 12 11 11 11 10 10 9 9 9 8 8 7 6 5 5 5 6 8 9 10 11 11 12 13 14 16 18 21 24 26 28 30 31 32 33 33 34 35 37 40 42 43 41 39 37
25 23 23 22 21 20 19 18 19 19 18 18 18 17 20 22 21 19 20 21 23 23 23 23 24 24 23 24 24 23 23 22 22 21 20 18 17 16 15 14 13 13 12 12 11 10 10 10 10 9 9 8 7 7 6 6 7 8 9 9 10 11 11 12 13 15 17 20 24 26 28 30 31 32 33 34 35 36 39 41 43 42 40 37 36
27 26 25 24 23 23 22 21 20 20 21 20 20 19 19 21 22 22 22 23 24 24 23 23 24 24 24 24 25 24 24 23 23 22 21 20 18 17 16 15 14 14 13 13 12 12 11 11 11 10 9 9 8 8 8 8 9 9 10 10 10 11 11 11 13 15 17 20 23 26 28 29 31 32 33 35 36 37 40 42 43 41 38 35 34
29 29 27 26 25 25 24 24 23 22 22 22 22 22 20 20 22 23 24 24 25 26 24 24 24 25 25 26 26 26 25 24 23 23 22 20 19 18 18 17 15 15 15 14 14 13 12 12 11 10 9 9 9 9 9 10 10 11 11 11 11 11 12 12 13 15 17 20 23 25 27 29 31 32 34 35 36 38 40 42 42 38 35 34 33
31 30 28 27 27 26 26 26 26 24 24 24 24 24 22 21 22 24 26 26 27 27 26 25 26 26 26 27 27 27 25 24 24 24 23 22 21 20 19 18 17 17 16 15 15 14 14 13 12 11 10 10 10 10 11 11 12 12 13 12 12 12 13 14 15 16 18 21 23 26 27 29 31 32 34 35 36 38 40 42 39 36 34 33 33
31 30 30 30 29 28 28 29 29 27 27 26 26 26 25 24 23 25 26 27 27 27 27 27 27 27 27 28 28 27 26 25 26 26 25 24 23 21 20 20 19 18 17 17 16 15 15 14 13 12 12 11 11 11 11 12 12 13 13 13 14 14 14 15 16 18 19 21 24 26 28 29 31 32 33 35 36 38 40 40 37 34 33 32 32
33 32 32 32 32 31 31 31 31 30 29 28 28 28 28 26 25 25 26 27 29 29 29 29 28 28 28 29 29 29 27 27 27 28 27 26 24 23 22 22 21 20 19 18 18 17 16 15 15 13 13 12 11 11 11 11 12 12 13 14 15 15 16 16 18 19 20 22 24 26 28 29 31 32 33 35 36 38 40 38 34 32 31 31 32
36 35 34 35 34 34 33 32 32 32 31 30 30 30 30 29 27 26 26 29 31 32 32 32 31 30 29 31 31 30 29 27 28 28 28 27 26 25 24 24 24 22 21 20 19 18 17 17 16 15 13 12 12 12 11 11 12 13 14 15 16 17 18 19 20 20 21 22 24 26 27 28 30 31 33 35 36 37 39 36 32 30 30 30 31
38 37 37 36 36 36 34 33 34 34 34 33 33 32 32 32 30 28 28 30 33 33 34 33 32 31 31 32 32 31 30 28 28 28 28 28 27 26 27 26 25 24 22 21 21 20 19 18 17 16 14 13 13 13 12 13 14 14 16 17 18 19 20 20 21 21 21 22 24 25 26 27 29 31 33 34 35 37 37 33 29 28 28 28 30
40 40 38 37 38 37 36 35 35 36 36 35 34 34 34 34 32 31 30 31 33 35 35 34 33 32 31 31 32 32 31 30 29 28 29 29 28 28 28 27 26 25 24 23 22 21 20 19 18 17 15 15 14 14 14 14 15 16 17 17 18 19 19 19 20 20 20 22 23 25 26 27 28 30 32 33 35 37 35 31 28 27 26 27 28
41 41 40 39 39 38 36 36 37 38 37 37 36 36 36 35 34 33 33 32 32 34 36 36 35 33 31 31 32 33 32 32 30 29 30 30 30 30 29 28 28 27 26 24 23 23 22 21 19 18 17 16 16 16 16 16 16 16 17 17 18 18 18 19 19 20 21 22 23 24 25 27 28 30 32 33 34 36 34 29 26 25 25 26 27
42 41 40 40 40 39 37 37 39 39 38 38 38 37 37 37 37 36 35 34 33 34 36 37 36 34 33 33 33 34 35 34 32 31 31 31 31 31 31 30 30 28 27 26 25 24 23 22 21 20 19 18 18 17 17 17 17 17 17 17 17 18 19 20 20 21 22 23 24 24 25 27 29 30 32 33 34 35 32 27 24 23 23 24 25
43 42 41 41 41 41 40 40 41 40 39 39 38 38 38 38 39 38 36 35 35 35 36 38 37 35 35 35 36 37 38 37 34 33 33 33 33 33 32 31 31 29 29 28 27 26 25 24 23 22 21 20 19 19 19 19 19 18 18 18 18 19 20 21 22 22 23 23 24 24 25 27 29 30 31 33 34 34 30 26 23 22 22 23 24
45 43 42 42 43 43 42 43 43 42 41 40 39 39 39 40 40 39 38 37 37 37 37 38 38 38 37 37 38 39 39 38 36 35 34 34 35 34 33 32 32 31 31 30 29 27 27 26 25 24 23 22 21 21 21 20 20 19 19 19 20 21 22 22 23 23 24 24 25 25 26 27 28 30 31 32 34 33 28 24 23 22 22 22 23
47 44 44 44 45 44 44 44 44 43 42 41 40 39 39 40 40 40 40 39 39 38 38 38 39 40 40 40 40 40 39 38 36 35 36 36 36 36 34 34 34 34 33 32 30 30 29 28 27 26 25 24 23 23 22 21 21 20 20 20 21 21 22 23 24 24 25 25 25 26 26 27 28 30 31 32 32 31 26 22 21 20 21 21 22
48 46 45 46 46 46 45 45 45 44 43 41 40 40 40 41 41 42 42 41 40 40 39 39 39 41 41 41 40 40 39 39 38 37 37 38 38 37 36 36 36 36 35 33 32 32 31 30 29 28 27 26 25 24 23 22 21 21 21 21 21 22 23 24 24 25 26 26 26 26 27 28 29 30 31 31 31 29 24 20 18 18 18 18 19
49 47 47 47 48 47 46 46 46 45 43 41 41 42 42 42 43 44 44 44 43 42 41 40 40 41 41 40 40 40 40 40 39 39 39 39 39 39 38 38 38 37 36 35 35 35 34 32 31 30 30 29 28 26 25 23 22 22 22 22 22 22 23 24 25 26 26 27 27 27 28 28 29 30 31 31 31 28 23 19 17 16 15 16 17
50 49 48 48 48 47 47 47 47 45 43 41 41 42 43 44 45 46 46 46 45 43 42 42 41 40 40 39 40 40 40 40 40 40 40 40 40 40 40 39 39 38 38 38 38 38 36 34 33 33 32 31 30 28 26 25 24 24 24 23 23 23 24 25 26 27 27 27 28 28 28 29 29 30 31 31 31 28 23 20 17 15 15 15 16
51 50 48 48 47 47 47 47 46 45 43 42 42 42 43 44 46 47 47 47 46 45 44 43 41 40 39 40 40 40 40 41 41 42 42 42 41 41 41 41 41 40 40 40 40 40 38 37 36 36 35 34 33 31 29 28 27 27 26 25 25 25 25 27 27 28 28 28 28 28 28 29 29 30 31 31 31 29 24 21 18 16 15 15 16
51 50 49 47 46 46 47 46 46 45 44 43 43 43 44 46 47 48 48 48 48 47 45 43 42 41 40 40 40 41 41 42 42 42 42 42 42 43 43 43 42 41 41 42 42 41 40 40 39 39 38 36 35 34 33 31 30 30 29 29 28 27 28 28 29 29 29 29 29 28 28 29 29 30 30 31 31 29 25 22 19 17 16 16 16
51 50 49 47 45 46 47 46 46 46 45 45 44 45 45 46 47 47 48 49 49 48 47 45 43 42 41 40 39 40 42 43 43 42 42 42 43 44 44 44 43 43 43 44 43 42 42 42 42 41 40 39 38 37 36 34 33 33 33 32 31 30 30 31 31 31 30 30 30 29 28 29 30 30 30 31 30 29 25 22 20 19 18 17 16
51 49 48 46 46 46 46 46 46 46 46 45 45 45 45 46 47 47 48 48 48 48 48 46 45 44 43 41 40 40 41 42 43 43 43 43 43 44 44 44 44 44 45 45 44 44 43 43 43 43 42 42 41 39 38 37 35 35 35 35 34 33 33 33 33 32 32 31 31 30 29 29 30 30 30 31 31 29 26 23 22 21 20 20 17
51 50 48 48 48 47 47 47 47 46 45 45 44 44 44 46 47 47 47 48 48 48 48 48 47 47 45 43 42 41 41 41 42 43 43 43 43 43 43 43 44 45 46 46 45 45 45 44 44 44 44 44 43 41 39 38 37 37 37 36 36 35 35 35 35 34 33 33 32 31 30 30 30 30 30 31 31 29 27 25 24 23 23 23 19
51 50 49 49 49 47 47 48 47 45 45 45 44 43 44 45 45 46 47 47 48 49 50 50 50 49 47 45 43 42 42 41 42 42 43 43 43 43 43 43 44 45 45 46 46 46 45 45 45 45 45 45 44 42 41 39 38 38 38 38 37 37 37 36 36 35 35 34 34 32 31 31 31 30 31 31 31 30 28 27 26 26 26 25 22
51 49 49 48 47 47 47 47 46 45 45 45 44 44 44 44 45 46 47 48 49 50 51 51 51 50 49 48 45 44 43 43 42 42 42 42 42 42 43 44 45 46 46 46 46 46 46 46 46 46 46 46 44 43 42 41 40 39 39 39 39 39 39 38 37 37 37 36 35 34 32 32 31 31 31 31 32 31 29 29 28 27 29 29 26
51 50 49 49 47 47 47 47 46 45 45 45 44 43 44 45 46 47 47 49 50 51 52 52 52 52 51 50 48 47 46 45 44 43 42 40 39 39 41 43 45 46 46 46 46 47 47 47 47 47 47 46 45 44 44 43 42 41 41 42 42 42 42 40 37 38 38 38 37 35 34 33 32 31 32 32 32 31 31 30 29 29 31 31 28
52 50 50 49 48 48 47 47 46 45 45 44 43 43 44 45 45 46 47 49 51 51 52 52 52 53 53 52 51 50 48 47 46 45 43 41 39 38 38 40 42 44 45 45 46 47 47 47 48 47 47 46 46 45 45 46 45 43 43 43 44 45 44 41 38 39 40 39 38 35 34 34 33 33 33 33 33 32 31 31 30 30 32 33 31
53 51 51 50 49 49 48 47 46 45 44 43 42 43 43 44 43 44 46 47 49 50 51 52 52 53 53 53 52 51 50 49 48 46 45 43 40 39 38 39 39 41 42 43 45 46 46 46 46 46 46 45 45 45 45 46 46 45 44 44 45 46 44 41 40 40 41 40 38 36 34 34 34 35 34 34 34 32 32 33 32 30 31 32 34
54 52 51 51 50 49 48 47 46 45 43 42 42 42 42 42 42 43 45 46 47 48 49 51 52 52 52 52 51 51 51 50 49 47 46 45 43 42 41 40 40 40 41 42 43 44 44 44 44 44 44 43 43 44 44 44 45 45 45 44 45 45 44 42 41 42 42 40 38 36 35 35 36 36 36 35 35 34 34 34 33 29 26 26 32
55 54 52 51 50 49 48 47 46 45 43 43 42 42 42 42 42 44 45 45 46 47 48 49 50 50 50 50 50 50 50 50 49 48 47 46 44 43 43 42 41 41 41 41 42 42 43 43 43 43 42 42 42 42 42 42 43 44 44 44 45 45 44 42 42 42 42 40 38 37 37 37 38 38 38 37 36 36 35 34 34 31 23 20 28
56 55 53 51 49 48 48 48 47 45 44 43 43 43 43 43 43 44 45 46 46 47 48 49 50 50 50 50 51 51 51 51 51 50 49 48 46 45 45 45 44 43 42 42 42 42 43 43 43 42 42 42 41 41 41 42 42 43 44 44 44 44 43 42 43 43 42 40 39 39 39 40 40 40 39 39 38 37 36 35 34 33 26 20 24
57 55 54 51 50 49 49 48 48 46 45 44 43 44 44 43 43 44 45 46 46 47 49 49 50 51 51 52 52 53 54 54 54 53 53 51 50 48 48 48 48 47 46 45 44 43 44 44 43 43 42 41 41 41 42 42 42 42 43 44 44 43 42 41 42 42 42 41 40 41 41 42 43 42 41 41 40 39 38 37 36 35 32 27 26
58 56 54 52 51 50 49 49 48 47 46 45 44 44 44 43 43 43 43 43 44 46 48 49 50 51 52 52 53 54 55 56 56 56 55 54 52 52 51 51 51 51 49 48 46 44 44 44 43 42 42 41 41 41 42 43 42 41 42 42 43 42 41 41 42 43 42 42 42 43 44 45 44 44 43 43 42 41 40 40 39 37 36 34 32
59 57 55 54 52 51 51 50 49 48 47 46 45 45 45 44 43 42 41 41 41 43 45 46 47 49 50 52 53 54 55 56 56 56 56 55 54 54 54 53 53 52 51 49 47 44 43 43 42 42 41 40 41 42 42 43 42 41 41 41 41 42 42 42 43 44 43 43 45 46 47 47 47 46 46 46 45 44 42 42 41 40 38 38 38
60 58 57 55 54 53 52 51 49 49 47 47 47 46 46 44 43 41 40 39 39 40 42 43 44 46 47 49 50 51 52 53 55 55 55 55 56 56 55 55 54 53 52 50 48 46 45 44 43 42 42 42 42 43 43 43 42 42 42 42 42 43 43 44 45 46 46 47 48 49 50 50 50 50 49 49 47 46 45 44 43 42 41 41 41
61 60 58 57 56 55 53 51 50 49 49 48 48 48 47 46 44 42 40 39 38 39 40 41 43 45 46 47 48 48 49 50 52 53 54 55 55 56 56 56 55 55 54 53 51 50 49 48 47 46 45 45 45 45 45 45 45 44 44 45 45 46 46 47 47 48 49 50 51 52 52 52 53 52 51 50 49 47 46 46 45 44 43 44 44
62 62 60 58 57 56 55 53 52 51 50 49 49 49 49 48 46 44 43 41 40 39 39 40 41 43 45 46 48 49 49 49 50 51 52 54 55 56 56 56 56 56 55 54 54 54 53 52 52 50 49 48 48 48 47 47 47 48 48 48 49 49 50 50 50 51 51 52 53 54 54 54 54 53 52 51 50 49 48 48 47 46 46 47 47
64 63 62 60 58 57 56 55 53 53 52 51 51 51 51 50 48 47 46 44 42 41 41 40 40 41 42 44 45 47 48 49 49 50 52 53 54 55 56 56 56 56 55 56 56 55 55 55 55 54 53 52 51 51 50 50 51 52 52 52 53 53 53 53 53 53 53 53 54 55 55 56 55 54 53 51 50 50 50 50 50 49 49 50 50
Wind_Direction
318 334 346 356 3 13 87 150 149 143 137 138 147 151 150 151 149 149 150 153 155 154 154 153 151 151 150 150 149 148 148 147 145 142 140 136 133 129 125 118 112 106 98 90 81 75 72 70 69 70 71 72 73 72 72 70 68 66 65 64 64 63 61 59 57 55 53 51 49 47 47 47 46 44 43 42 43 43 42 42 41 40 39 37 36
318 332 341 350 359 10 40 172 170 161 151 145 154 156 154 159 160 156 156 159 162 161 160 160 158 156 156 156 154 153 153 154 153 149 146 143 139 136 134 127 121 114 104 92 84 77 74 72 73 72 73 74 74 73 72 70 67 63 60 59 59 58 57 55 54 52 50 48 47 45 45 45 44 42 39 39 39 40 40 39 39 37 35 33 31
312 326 332 341 354 1 358 198 190 181 171 159 162 166 161 163 172 168 164 165 167 167 166 165 164 162 161 160 159 159 159 159 159 155 151 148 145 144 141 136 131 122 110 98 89 81 76 75 75 74 74 74 74 73 71 69 67 63 59 57 56 54 53 52 51 50 47 45 44 43 42 42 41 39 37 35 36 36 35 34 32 31 29 27 24
301 311 316 323 339 348 340 243 213 196 185 173 169 177 171 163 175 182 173 170 171 172 172 170 168 167 165 165 163 163 164 164 163 160 155 153 153 152 149 145 139 131 120 107 95 87 82 79 77 75 74 72 71 70 69 68 66 64 61 57 54 52 50 48 47 47 45 42 40 39 37 36 36 35 33 32 31 31 29 27 25 24 22 20 17
285 291 294 300 318 331 325 279 236 209 196 187 176 184 181 168 175 190 183 176 177 177 177 175 172 170 169 167 167 166 167 168 168 165 162 161 162 163 161 157 150 142 131 118 106 96 88 84 80 74 71 68 66 64 63 62 62 61 59 56 53 50 47 44 43 42 41 39 36 35 33 32 31 31 29 28 27 25 24 22 19 17 15 13 11
269 275 275 279 294 310 304 281 257 224 204 200 191 185 186 179 178 188 190 186 184 182 181 180 177 174 172 171 171 172 173 174 175 173 171 170 171 174 174 174 169 159 145 135 124 109 98 92 83 73 65 60 57 56 55 54 52 52 50 49 47 45 43 40 37 35 36 35 33 32 30 29 28 27 26 24 23 21 19 17 14 12 10 8 6
253 262 263 265 276 289 287 273 266 246 216 206 205 195 192 191 183 183 192 194 190 188 186 184 183 181 179 179 179 179 179 178 178 179 179 179 181 184 187 190 191 183 167 156 149 132 116 106 93 74 60 53 49 47 47 46 44 42 41 41 39 38 36 34 32 30 31 31 29 28 27 25 24 24 23 21 19 17 15 13 10 7 5 3 1
247 252 255 256 264 274 277 268 264 258 233 213 212 210 205 203 194 184 189 196 195 195 193 189 190 190 189 188 186 185 183 182 182 183 184 186 188 193 197 199 203 202 188 179 177 167 146 134 112 78 57 49 43 41 41 41 39 36 34 34 34 33 30 29 29 28 29 28 27 25 24 22 20 20 19 17 16 14 12 10 6 4 1 359 357
248 250 251 252 256 262 267 264 259 255 244 223 214 217 216 212 208 195 189 193 198 200 199 197 197 198 197 196 194 191 190 190 190 190 190 190 192 196 201 204 207 209 204 200 201 196 181 171 149 96 58 43 36 34 35 35 34 32 31 31 30 29 26 25 27 28 27 26 25 24 22 20 18 17 16 14 13 11 9 7 3 0 358 356 354
250 252 251 249 251 256 258 258 254 250 247 233 219 217 218 214 213 207 195 193 198 202 204 205 204 204 203 202 202 201 200 198 198 198 199 200 203 207 208 207 208 210 212 212 215 216 210 206 198 178 80 38 27 24 25 27 28 30 29 29 27 25 23 23 25 26 25 23 22 22 20 18 16 15 13 11 9 7 6 3 360 357 356 354 353
250 252 252 249 248 252 255 255 254 249 246 240 227 222 222 220 216 212 204 199 200 203 207 211 212 209 207 207 209 210 209 206 204 204 206 211 219 225 222 215 212 214 218 221 225 227 226 225 220 218 221 332 10 11 13 15 19 23 24 23 22 21 20 21 23 24 21 20 19 19 18 16 14 13 11 9 6 4 2 360 357 356 354 353 353
249 250 252 251 247 248 252 254 255 252 247 241 233 226 226 229 226 217 209 207 206 206 208 213 215 214 212 211 213 215 216 214 211 209 211 217 224 230 229 224 219 219 222 227 231 234 235 234 233 233 238 257 320 350 359 5 6 12 15 14 13 13 15 16 18 19 17 15 15 14 13 12 11 9 8 6 4 1 359 357 356 354 353 352 353
249 249 252 252 249 248 248 251 253 253 249 243 235 229 225 227 230 224 216 213 214 212 211 213 214 216 216 217 217 218 219 219 217 216 217 221 225 229 231 230 227 225 226 230 234 239 241 240 242 244 247 255 277 310 335 349 355 359 3 4 3 4 7 10 11 12 10 10 9 9 8 7 6 5 4 2 0 358 357 356 355 353 352 353 355
250 249 253 253 251 249 248 247 251 252 251 247 240 234 228 225 226 225 220 219 220 219 217 215 214 217 219 221 222 221 221 222 222 222 223 224 224 226 231 233 234 233 230 232 236 240 244 246 248 250 253 258 266 284 307 327 337 343 347 351 352 354 358 1 2 3 3 2 3 2 2 2 1 1 0 359 357 356 355 355 354 352 352 355 359
250 249 251 253 251 251 249 246 247 249 250 250 246 239 233 229 225 222 219 218 222 223 222 220 217 217 219 223 226 225 224 223 224 226 227 226 225 225 229 233 236 237 236 235 236 240 245 249 251 254 257 261 267 276 290 305 314 324 332 337 340 342 347 351 352 353 354 355 355 355 356 356 356 356 356 355 354 353 354 354 353 353 355 358 1
248 247 248 250 251 251 251 248 246 246 248 250 249 244 238 234 231 226 220 218 221 224 225 225 223 220 219 223 227 228 227 225 226 228 230 230 228 227 228 231 235 239 240 238 237 238 242 248 253 257 260 265 270 276 284 293 301 311 320 324 327 330 335 338 341 343 345 347 349 350 350 351 351 351 352 352 351 352 353 353 352 354 357 360 2
244 245 245 246 249 251 252 251 248 245 246 247 248 247 242 239 236 232 226 221 220 222 224 227 228 225 222 222 226 228 228 228 229 230 231 232 231 229 229 231 233 235 238 239 239 237 238 243 251 258 264 269 274 278 284 291 297 306 312 316 318 320 325 328 331 334 337 341 344 344 345 346 346 347 348 349 350 351 351 352 353 356 359 1 2
241 245 246 246 248 250 252 252 250 246 244 244 246 246 242 238 236 234 231 227 225 224 222 224 228 229 227 225 226 228 228 229 231 231 231 232 231 230 231 232 232 232 234 236 237 236 235 238 245 255 264 271 277 283 288 294 300 306 311 313 315 316 319 321 325 328 333 337 339 340 341 342 342 343 345 347 348 349 350 351 354 358 0 1 2
241 243 245 246 246 247 248 250 251 248 245 243 243 244 242 238 235 233 232 231 231 229 225 224 228 230 231 230 230 230 228 229 230 231 232 232 231 231 231 231 232 232 232 233 234 234 234 236 241 250 261 270 278 285 291 298 304 310 313 314 314 315 316 318 322 326 329 334 335 335 336 338 338 340 342 345 347 348 350 352 355 359 1 1 2
239 241 242 245 246 246 247 249 250 250 247 243 242 243 243 241 238 236 234 232 231 230 228 226 226 229 232 233 233 232 230 228 229 231 233 233 233 231 229 231 232 232 231 231 231 232 233 236 241 248 257 266 275 283 291 299 306 311 314 313 314 315 317 319 321 324 327 329 329 330 332 334 335 337 340 343 345 347 349 352 356 0 0 1 2
239 241 242 245 247 248 249 249 250 250 248 244 241 241 242 242 240 238 236 234 233 232 231 229 226 225 229 233 234 234 233 231 231 232 234 235 234 231 229 230 232 232 232 231 230 232 233 237 242 248 255 262 270 279 287 296 304 308 311 312 314 316 319 320 321 323 325 325 325 326 329 330 332 335 338 342 344 346 349 353 358 1 0 1 3
239 241 242 244 248 250 251 251 250 249 247 245 243 240 240 240 240 238 236 235 234 234 235 234 231 226 225 230 234 236 236 235 233 234 236 236 235 232 230 231 232 233 233 232 231 232 235 240 245 249 254 262 270 279 287 295 301 305 309 311 314 317 319 321 322 324 324 323 323 325 327 328 330 333 337 340 343 346 349 354 359 0 0 2 4
240 241 243 245 248 250 252 253 251 250 249 248 246 242 240 240 241 239 238 237 236 236 236 237 237 232 227 228 233 237 238 238 236 235 236 237 236 234 233 233 232 233 233 233 232 234 237 242 247 250 255 262 270 279 286 293 298 303 306 310 313 316 319 321 324 325 324 322 324 325 326 327 329 333 337 339 341 345 349 354 359 359 360 3 4
242 243 245 247 249 251 253 253 251 250 249 249 247 244 242 240 240 240 240 239 239 239 238 238 239 237 231 228 231 236 239 240 239 237 237 238 237 236 235 234 233 233 234 234 234 235 238 242 246 250 255 261 268 276 284 290 295 299 302 306 311 316 318 320 322 323 321 322 324 325 325 326 329 332 335 337 341 345 349 354 358 358 359 2 3
243 245 247 249 251 252 251 249 248 248 248 248 248 246 244 240 239 239 239 240 240 240 239 238 238 240 237 229 227 232 237 239 239 239 238 238 238 237 236 235 235 235 235 236 236 237 240 243 246 251 255 260 267 274 281 286 290 293 297 303 309 315 316 318 319 318 319 321 323 323 324 325 328 332 334 336 340 345 349 353 356 356 359 1 0
243 245 247 249 250 251 250 248 247 247 248 247 247 246 245 242 240 240 240 240 240 240 239 238 237 238 238 234 227 227 232 235 237 238 239 238 239 239 237 237 237 237 236 236 238 239 241 244 247 251 256 260 267 273 279 283 285 288 294 300 307 312 314 315 316 315 316 318 320 321 322 324 327 330 332 335 340 345 348 351 352 354 357 359 357
244 245 247 249 250 250 250 248 247 246 247 246 245 245 244 242 240 239 240 240 240 240 239 239 238 237 237 236 232 228 230 232 234 236 239 239 240 240 239 239 239 238 237 237 238 240 242 245 248 252 257 261 267 273 277 280 280 284 291 297 302 308 312 313 314 314 314 315 317 318 320 323 326 328 329 334 340 344 347 348 348 350 355 356 355
246 247 248 249 250 250 250 249 247 247 247 246 244 243 243 243 241 240 240 240 240 241 241 240 239 238 238 237 236 233 232 232 233 235 238 240 240 240 240 240 240 240 240 240 240 242 244 246 249 252 257 262 267 272 276 277 277 281 288 293 298 303 308 310 312 312 312 313 314 315 318 321 323 325 327 333 339 343 344 343 344 347 350 353 352
247 248 248 248 249 249 249 249 248 248 247 245 243 241 241 241 241 239 238 239 240 240 241 241 240 240 239 239 239 238 236 234 233 234 237 239 241 241 241 241 241 241 242 243 244 244 246 248 250 253 256 261 266 272 276 276 275 278 284 289 293 299 304 307 308 309 309 310 311 313 315 318 321 322 325 331 337 341 340 337 339 342 344 348 348
247 248 248 249 249 249 249 248 248 248 247 244 241 240 239 239 239 238 237 237 238 239 239 240 240 240 241 241 241 241 240 238 235 234 235 238 241 242 242 242 243 243 244 245 246 247 249 250 252 254 257 260 264 270 274 275 274 275 280 285 290 296 300 303 305 306 307 307 308 310 313 315 317 319 323 329 335 337 336 331 333 337 336 340 341
247 248 249 249 250 249 248 248 248 247 245 242 240 238 238 238 238 238 237 236 237 238 238 239 240 241 241 241 241 241 242 241 238 235 235 237 239 241 243 244 244 245 245 246 247 248 250 252 253 254 257 259 263 267 272 273 271 272 275 280 286 293 297 300 302 303 304 305 305 307 310 312 314 317 321 327 332 333 330 326 327 330 329 331 336
247 248 248 249 249 249 248 247 247 246 244 241 239 238 237 238 239 238 237 236 236 236 237 238 240 240 240 240 240 240 241 241 240 239 238 238 238 240 241 243 244 245 246 247 248 249 251 253 254 255 257 260 262 266 268 270 269 269 272 277 283 289 294 297 299 300 302 303 302 304 306 308 311 315 319 324 328 329 325 320 320 323 322 324 330
246 247 247 247 247 247 246 245 244 244 242 240 238 236 235 236 238 238 238 237 235 235 236 237 238 239 239 240 241 241 241 241 241 242 242 242 241 240 240 242 243 244 246 247 248 250 251 252 254 256 258 259 262 264 266 268 268 269 271 274 280 286 291 294 296 298 299 300 300 301 303 305 308 311 316 321 325 324 320 314 313 316 315 315 323
246 246 247 246 245 245 244 244 243 243 242 240 238 236 235 235 237 238 238 238 236 235 235 235 237 238 238 240 241 243 243 243 243 244 244 245 244 243 242 243 243 243 245 246 247 249 251 253 254 256 258 259 260 262 265 267 268 269 270 273 277 282 287 290 293 295 296 297 298 298 300 302 305 308 313 318 321 320 315 308 306 308 308 306 311
243 244 244 243 242 242 242 242 242 242 242 241 240 238 237 236 237 237 238 238 238 237 236 235 236 238 238 239 241 243 244 245 245 245 245 246 246 246 246 246 245 245 245 246 247 249 250 252 254 256 258 259 260 262 264 266 267 268 269 271 275 279 283 287 290 292 294 295 296 296 297 299 302 306 311 315 317 316 311 304 300 301 301 297 298
241 241 240 239 239 238 239 239 239 239 240 240 239 238 237 237 237 237 237 238 238 237 236 235 235 237 237 238 240 242 244 245 245 245 245 246 247 248 249 249 249 249 248 249 249 250 251 252 254 256 258 259 260 262 263 264 266 267 269 271 273 277 280 283 287 290 291 292 293 293 294 296 298 303 308 311 313 312 307 301 295 295 298 294 291
239 238 238 238 238 237 237 238 237 238 238 238 238 236 236 236 237 237 237 236 236 236 235 234 234 235 236 237 239 241 243 244 244 244 245 246 248 249 250 251 251 251 252 252 252 253 254 255 255 256 257 258 260 260 262 263 264 266 269 271 273 275 278 280 284 287 289 289 290 291 291 292 295 300 304 308 309 308 304 299 293 293 297 295 291
236 236 236 236 236 236 237 238 237 237 237 238 237 236 235 236 236 236 237 236 235 234 234 233 233 234 235 236 237 239 241 242 242 243 245 246 248 250 250 251 251 252 252 253 254 256 256 256 257 257 258 259 259 260 261 262 263 266 268 271 273 274 275 277 281 285 286 287 287 288 288 289 292 297 301 305 306 304 301 297 293 293 297 296 294
234 234 234 234 234 235 236 237 237 236 236 237 237 237 236 236 236 236 237 236 235 234 233 233 233 234 235 236 236 238 239 240 241 242 244 246 248 250 251 250 250 250 252 253 255 256 256 257 258 258 259 260 260 260 260 261 262 265 268 270 272 273 273 275 279 282 283 284 285 285 286 288 290 294 298 302 303 301 298 295 292 294 296 295 295
234 233 234 234 235 236 237 238 238 237 237 237 238 238 238 238 238 238 239 239 238 237 236 235 234 234 235 235 236 237 238 239 240 242 243 245 247 249 250 250 249 250 251 252 253 255 256 257 258 258 259 260 260 260 260 261 262 264 266 269 271 272 272 274 277 279 280 281 282 283 284 286 289 292 295 299 300 298 295 292 291 294 296 294 296
233 233 233 234 236 237 238 239 240 240 240 240 240 240 240 241 241 240 240 241 241 240 239 238 237 237 237 236 236 237 239 240 241 242 244 245 247 248 249 250 250 251 252 252 253 254 255 256 257 258 259 259 259 259 260 260 262 263 265 268 269 270 272 274 276 277 277 278 279 280 281 283 286 289 292 296 297 294 292 290 289 295 300 298 298
233 233 233 235 236 238 239 240 241 242 242 243 242 242 242 242 242 242 241 240 240 240 240 240 240 239 239 239 238 238 239 241 242 244 245 246 246 248 249 251 252 252 252 252 253 254 254 255 256 257 258 258 259 259 259 259 261 262 264 265 267 269 271 273 274 275 275 276 277 277 279 281 283 286 289 292 293 291 289 288 287 292 303 302 296
233 233 234 235 237 239 241 242 242 243 244 244 244 244 243 243 243 243 242 240 238 238 238 239 240 240 240 239 239 239 239 240 242 244 245 246 246 247 248 250 251 251 251 251 251 252 253 254 254 255 257 257 257 258 258 259 259 261 262 264 265 267 269 271 273 273 273 275 275 276 277 279 281 284 287 289 290 288 287 287 284 285 294 297 291
233 234 234 235 238 240 242 243 244 244 244 244 244 244 243 243 243 242 241 239 237 236 236 236 237 238 238 238 238 238 238 238 240 241 242 243 244 244 246 247 247 248 249 250 250 251 251 252 252 253 255 256 257 258 259 259 259 260 261 263 264 266 268 270 270 271 272 273 274 275 277 279 281 284 286 287 287 286 284 283 280 278 278 276 276
233 235 236 236 238 240 243 244 244 244 244 243 243 243 243 242 242 242 241 240 238 236 235 236 236 236 237 237 237 237 238 238 238 239 240 241 242 243 244 245 246 247 249 250 251 251 251 252 252 253 255 256 257 258 259 259 260 260 261 262 264 265 267 267 268 269 270 272 274 276 278 279 281 284 286 285 285 284 282 279 276 273 270 265 256
234 235 237 237 238 240 242 243 244 244 244 243 242 242 242 241 240 239 240 240 238 236 235 235 235 236 235 236 236 236 237 238 238 239 240 241 242 243 245 246 247 249 250 252 253 253 253 253 253 254 255 256 258 258 259 259 259 259 260 261 263 264 265 265 266 267 269 272 275 277 278 280 281 283 284 283 283 282 280 277 273 269 267 265 258
234 235 237 237 238 240 241 242 243 243 243 242 242 241 240 239 238 238 238 238 237 236 235 234 234 235 235 235 234 235 236 237 238 238 239 240 241 243 245 247 248 250 251 253 253 253 252 252 252 253 254 255 256 257 257 258 258 258 259 260 261 263 263 264 265 268 270 273 275 276 278 279 281 282 283 283 282 280 277 274 271 269 267 267 265
234 235 236 237 238 239 240 240 241 242 242 242 241 241 240 239 239 238 238 237 236 235 236 235 235 236 237 237 236 236 236 237 238 239 240 241 242 243 245 246 248 250 251 252 252 251 250 250 251 251 252 252 253 254 256 257 258 259 259 260 261 262 263 265 266 269 271 273 275 276 278 280 281 282 282 282 281 278 275 272 270 269 269 269 269
236 236 236 237 238 238 239 239 240 240 241 240 240 240 240 240 240 239 238 238 237 236 236 236 236 237 238 240 241 240 240 240 241 242 242 243 244 245 245 247 248 249 250 252 251 251 250 250 251 252 252 253 254 255 256 258 259 260 261 262 262 263 264 265 267 269 271 273 275 277 279 281 282 282 281 281 279 275 273 271 270 270 270 270 271
238 238 237 237 238 238 238 239 239 239 239 239 239 240 240 239 239 239 238 237 237 237 237 237 237 238 238 240 242 243 243 243 243 243 243 244 245 246 246 247 248 248 250 251 251 252 252 253 253 255 255 256 256 257 258 259 261 262 262 263 264 264 265 266 268 270 272 274 277 279 280 281 281 281 279 278 275 273 271 270 270 270 270 271 272
238 239 238 237 237 238 238 238 239 239 239 239 239 239 240 239 238 237 237 237 236 236 236 237 238 239 240 241 242 243 243 244 243 243 243 244 245 245 246 246 247 248 249 250 251 251 252 253 254 256 257 257 258 259 260 260 261 261 262 263 264 265 266 268 270 272 274 276 278 279 280 280 280 279 277 275 272 271 270 270 270 270 271 272 273
Height
10975 10974 10974 10975 10975 10975 10975 10975 10975 10975 10976 10976 10977 10978 10979 10981 10982 10983 10984 10986 10987 10989 10990 10991 10993 10994 10995 10997 10998 10999 11000 11001 11001 11001 11001 11002 11002 11003 11004 11004 11004 11004 11003 11003 11003 11003 11003 11003 11003 11003 11003 11003 11003 11003 11003 11003 11003 11003 11003 11003 11002 11001 11000 11000 10999 10998 10998 10997 10997 10996 10995 10993 10992 10992 10991 10990 10989 10988 10987 10985 10984 10983 10982 10981 10980
10974 10974 10974 10974 10975 10975 10975 10976 10976 10976 10976 10977 10978 10978 10980 10981 10983 10983 10985 10986 10988 10989 10990 10991 10993 10994 10995 10997 10998 11000 11001 11001 11002 11002 11002 11003 11003 11004 11005 11005 11005 11005 11005 11004 11004 11004 11004 11004 11004 11004 11004 11004 11005 11005 11005 11005 11005 11005 11005 11004 11004 11003 11002 11001 11001 11000 11000 10999 10998 10997 10996 10995 10994 10994 10993 10992 10991 10990 10988 10987 10986 10985 10984 10983 10981
10973 10973 10973 10974 10975 10975 10975 10976 10976 10976 10976 10977 10978 10978 10979 10981 10983 10984 10985 10986 10988 10989 10991 10992 10993 10994 10996 10997 10998 10999 11001 11002 11002 11003 11003 11004 11004 11005 11006 11006 11006 11006 11006 11005 11005 11005 11005 11005 11005 11005 11005 11006 11006 11007 11007 11007 11007 11007 11007 11006 11005 11005 11004 11003 11002 11002 11001 11001 11000 10999 10998 10997 10996 10995 10995 10993 10992 10990 10989 10988 10987 10986 10985 10984 10982
10971 10972 10973 10973 10974 10975 10975 10976 10976 10976 10977 10977 10978 10979 10979 10981 10983 10984 10985 10986 10988 10990 10991 10992 10994 10995 10996 10997 10998 11000 11001 11002 11003 11003 11003 11004 11005 11006 11007 11007 11007 11007 11007 11007 11007 11007 11007 11007 11006 11006 11007 11007 11008 11008 11009 11009 11009 11009 11009 11008 11007 11006 11006 11005 11004 11003 11003 11002 11001 11000 10999 10998 10997 10996 10995 10993 10992 10991 10990 10989 10988 10987 10985 10984 10982
10971 10971 10972 10973 10974 10974 10975 10976 10976 10976 10977 10977 10978 10979 10980 10981 10982 10984 10986 10986 10988 10990 10991 10993 10994 10996 10997 10998 10999 11000 11001 11002 11003 11003 11004 11005 11006 11007 11007 11007 11008 11008 11008 11008 11008 11008 11008 11008 11008 11008 11008 11008 11009 11009 11010 11010 11010 11010 11010 11010 11009 11008 11007 11007 11006 11005 11004 11003 11002 11001 11000 10999 10997 10996 10995 10994 10992 10991 10990 10989 10988 10987 10985 10983 10982
10970 10970 10971 10972 10973 10974 10975 10975 10976 10976 10977 10977 10978 10979 10980 10980 10981 10984 10986 10986 10987 10989 10991 10993 10994 10996 10997 10999 11000 11001 11001 11002 11003 11003 11004 11005 11006 11007 11007 11008 11008 11009 11009 11009 11009 11009 11009 11009 11009 11009 11010 11010 11010 11010 11010 11011 11011 11011 11011 11010 11010 11009 11009 11008 11007 11006 11005 11004 11003 11002 11001 11000 10998 10997 10996 10995 10993 10992 10990 10989 10988 10986 10984 10982 10981
10969 10970 10970 10971 10972 10973 10974 10975 10975 10976 10976 10977 10977 10978 10979 10980 10981 10983 10985 10986 10988 10989 10991 10992 10994 10995 10996 10997 10999 10999 11000 11001 11003 11003 11004 11005 11005 11006 11007 11008 11009 11009 11010 11010 11010 11010 11010 11010 11010 11010 11011 11011 11011 11011 11011 11011 11011 11011 11011 11011 11011 11010 11010 11009 11008 11007 11006 11005 11004 11003 11002 11001 10999 10998 10996 10995 10994 10992 10991 10989 10987 10985 10983 10981 10980
10968 10969 10969 10970 10971 10972 10973 10974 10975 10975 10976 10976 10977 10978 10979 10979 10980 10982 10984 10986 10987 10989 10990 10992 10993 10994 10995 10997 10998 10999 11000 11001 11002 11003 11004 11004 11005 11006 11007 11008 11009 11010 11010 11011 11011 11011 11011 11011 11011 11011 11011 11012 11012 11012 11012 11012 11012 11012 11012 11012 11011 11011 11011 11010 11009 11008 11007 11006 11005 11003 11002 11001 10999 10998 10997 10996 10995 10993 10991 10990 10988 10986 10984 10982 10980
10966 10967 10968 10969 10970 10971 10972 10973 10974 10974 10975 10976 10976 10977 10978 10979 10980 10981 10982 10985 10987 10988 10989 10991 10992 10993 10995 10996 10998 10999 11000 11000 11001 11002 11003 11004 11005 11006 11007 11008 11009 11010 11011 11011 11012 11012 11012 11012 11012 11012 11012 11012 11013 11013 11014 11013 11013 11013 11013 11012 11012 11012 11011 11011 11010 11009 11008 11007 11005 11004 11003 11001 11000 10999 10997 10996 10995 10994 10992 10990 10988 10986 10984 10982 10979
10963 10965 10967 10968 10969 10970 10971 10972 10973 10973 10974 10975 10975 10976 10977 10978 10979 10980 10982 10983 10985 10987 10988 10990 10991 10993 10994 10996 10997 10998 10999 11000 11001 11002 11003 11004 11005 11006 11007 11008 11009 11010 11011 11012 11012 11012 11012 11012 11013 11013 11013 11013 11014 11014 11014 11014 11014 11014 11014 11013 11013 11012 11012 11012 11011 11010 11009 11007 11006 11005 11004 11002 11001 10999 10998 10997 10995 10993 10992 10990 10988 10986 10984 10981 10978
10961 10963 10965 10966 10967 10968 10969 10971 10972 10972 10973 10974 10975 10975 10976 10977 10978 10980 10981 10983 10984 10986 10987 10988 10990 10992 10994 10995 10997 10998 10999 10999 11000 11002 11003 11004 11005 11006 11007 11008 11008 11010 11010 11011 11012 11013 11013 11013 11013 11014 11014 11014 11014 11015 11015 11015 11015 11014 11014 11014 11014 11013 11013 11012 11011 11010 11009 11008 11007 11006 11004 11003 11002 11000 10999 10997 10995 10994 10992 10990 10987 10985 10983 10980 10977
10959 10961 10962 10964 10966 10967 10968 10969 10970 10971 10972 10973 10974 10974 10975 10976 10978 10979 10980 10982 10983 10984 10986 10987 10989 10992 10993 10994 10995 10997 10998 10999 11000 11001 11002 11003 11005 11006 11007 11007 11008 11009 11010 11011 11012 11012 11013 11013 11014 11014 11014 11015 11015 11015 11015 11015 11015 11015 11015 11014 11014 11014 11013 11012 11012 11011 11010 11009 11007 11006 11005 11003 11002 11001 10999 10997 10996 10994 10991 10989 10987 10984 10981 10979 10976
10957 10958 10959 10962 10964 10965 10966 10967 10968 10970 10971 10972 10973 10973 10974 10975 10977 10978 10979 10981 10982 10983 10984 10986 10988 10990 10992 10993 10994 10996 10997 10998 10999 11000 11001 11002 11004 11005 11006 11007 11008 11008 11009 11010 11011 11012 11013 11013 11014 11014 11014 11015 11015 11016 11016 11016 11015 11015 11015 11015 11015 11014 11013 11013 11012 11011 11010 11009 11008 11006 11005 11004 11002 11001 10999 10997 10996 10994 10992 10989 10986 10984 10981 10978 10976
10955 10957 10957 10959 10961 10962 10964 10966 10967 10968 10969 10970 10971 10972 10973 10973 10975 10976 10978 10980 10981 10982 10983 10985 10987 10989 10991 10992 10993 10995 10996 10997 10998 10999 11000 11001 11003 11004 11005 11006 11007 11008 11009 11009 11010 11012 11013 11013 11014 11014 11014 11015 11016 11016 11016 11016 11016 11016 11016 11015 11015 11015 11014 11013 11012 11011 11010 11009 11008 11006 11005 11004 11002 11001 10999 10997 10995 10993 10991 10989 10986 10983 10980 10978 10976
10952 10954 10955 10956 10958 10960 10962 10964 10965 10966 10967 10968 10969 10970 10971 10972 10973 10975 10976 10978 10979 10980 10982 10983 10985 10987 10989 10990 10992 10993 10995 10996 10997 10998 10999 11000 11001 11003 11004 11005 11006 11007 11008 11008 11009 11011 11012 11013 11014 11014 11015 11015 11015 11016 11016 11016 11016 11016 11016 11016 11015 11015 11014 11013 11012 11012 11011 11009 11008 11006 11005 11004 11002 11001 10999 10997 10995 10993 10991 10988 10986 10983 10980 10978 10975
10948 10951 10952 10953 10955 10956 10959 10961 10963 10964 10965 10966 10967 10968 10969 10970 10971 10973 10974 10976 10977 10978 10980 10982 10984 10985 10987 10989 10990 10992 10993 10994 10995 10996 10998 10999 11000 11001 11002 11004 11005 11006 11007 11008 11009 11010 11011 11012 11013 11014 11014 11015 11015 11016 11016 11016 11016 11016 11016 11015 11015 11014 11014 11013 11012 11012 11011 11010 11008 11007 11005 11003 11002 11000 10998 10996 10994 10992 10990 10987 10985 10982 10980 10977 10975
10944 10946 10948 10951 10952 10953 10956 10958 10960 10962 10962 10963 10964 10965 10967 10968 10970 10971 10972 10974 10975 10976 10978 10980 10982 10984 10985 10986 10988 10989 10991 10993 10994 10995 10997 10998 10999 11000 11001 11002 11003 11005 11006 11007 11008 11009 11010 11011 11012 11013 11014 11014 11015 11015 11015 11015 11015 11015 11015 11015 11015 11014 11013 11013 11012 11011 11011 11009 11008 11006 11005 11003 11001 10999 10997 10996 10994 10992 10989 10987 10984 10981 10979 10977 10975
10940 10942 10945 10948 10949 10951 10953 10954 10957 10959 10960 10961 10962 10963 10965 10966 10967 10969 10970 10972 10973 10974 10976 10978 10980 10982 10983 10985 10985 10987 10990 10991 10993 10994 10995 10996 10997 10998 10999 11000 11002 11003 11004 11005 11007 11008 11009 11009 11010 11011 11013 11013 11014 11014 11014 11014 11014 11014 11014 11014 11014 11013 11013 11012 11012 11011 11010 11009 11007 11005 11004 11002 11000 10998 10996 10995 10993 10991 10989 10986 10983 10980 10978 10976 10974
10937 10939 10942 10944 10946 10948 10949 10951 10953 10955 10957 10958 10959 10960 10962 10963 10964 10966 10968 10970 10972 10973 10975 10976 10978 10980 10982 10983 10984 10986 10988 10990 10991 10992 10993 10994 10996 10997 10998 10999 11000 11001 11002 11004 11005 11006 11007 11008 11009 11010 11011 11012 11013 11013 11013 11013 11013 11013 11013 11013 11013 11012 11012 11012 11011 11010 11009 11008 11006 11004 11002 11001 10999 10997 10996 10994 10992 10990 10988 10985 10982 10980 10977 10975 10973
10933 10935 10937 10939 10941 10944 10946 10947 10949 10951 10953 10955 10956 10958 10959 10960 10962 10964 10966 10968 10969 10971 10972 10973 10975 10978 10980 10981 10982 10983 10985 10987 10989 10989 10991 10992 10994 10995 10996 10997 10998 10999 11000 11002 11003 11004 11006 11007 11008 11009 11010 11011 11011 11012 11012 11012 11012 11012 11012 11012 11012 11011 11011 11011 11010 11009 11008 11007 11005 11003 11002 10999 10997 10996 10995 10993 10992 10990 10987 10984 10982 10979 10977 10975 10973
10928 10931 10933 10935 10937 10940 10943 10945 10946 10947 10950 10951 10953 10955 10956 10958 10959 10961 10963 10965 10966 10968 10969 10970 10972 10975 10977 10978 10979 10981 10983 10985 10986 10988 10989 10991 10992 10993 10994 10995 10996 10997 10999 11000 11001 11003 11004 11005 11006 11007 11008 11009 11010 11011 11011 11011 11011 11012 11011 11011 11011 11010 11010 11009 11009 11008 11007 11006 11004 11002 11001 10999 10997 10995 10993 10992 10991 10989 10986 10984 10981 10979 10977 10974 10972
10924 10926 10929 10931 10933 10936 10939 10942 10943 10943 10945 10947 10949 10951 10953 10954 10956 10958 10960 10961 10963 10965 10966 10968 10970 10972 10974 10976 10977 10979 10981 10983 10984 10986 10987 10989 10990 10991 10992 10993 10994 10996 10997 10999 11000 11001 11002 11004 11005 11006 11007 11007 11008 11009 11009 11010 11010 11010 11010 11010 11010 11009 11009 11008 11007 11007 11006 11004 11002 11001 10999 10998 10996 10994 10993 10991 10990 10988 10986 10983 10981 10979 10976 10974 10972
10920 10922 10925 10928 10930 10932 10935 10938 10939 10939 10941 10943 10946 10948 10950 10951 10953 10955 10956 10958 10960 10962 10963 10966 10968 10970 10972 10974 10975 10977 10978 10980 10982 10984 10985 10986 10988 10989 10990 10991 10993 10994 10995 10997 10998 11000 11001 11002 11003 11004 11005 11006 11006 11007 11008 11008 11009 11009 11009 11009 11009 11008 11008 11007 11006 11005 11004 11003 11001 10999 10998 10996 10995 10993 10992 10990 10989 10987 10984 10982 10980 10978 10976 10974 10972
10916 10919 10922 10925 10927 10930 10933 10935 10935 10935 10937 10940 10942 10944 10946 10948 10950 10951 10953 10955 10957 10959 10961 10963 10965 10967 10970 10972 10973 10974 10975 10977 10979 10981 10983 10984 10985 10986 10987 10989 10990 10992 10993 10995 10997 10998 10999 11001 11002 11002 11003 11004 11005 11005 11006 11006 11007 11007 11007 11007 11007 11007 11007 11006 11005 11004 11003 11001 11000 10998 10996 10995 10993 10992 10991 10989 10988 10986 10983 10981 10979 10977 10976 10974 10972
10913 10916 10919 10922 10924 10926 10929 10931 10930 10931 10934 10936 10938 10940 10942 10945 10946 10947 10949 10952 10955 10957 10958 10960 10962 10964 10967 10969 10970 10971 10972 10974 10976 10979 10980 10981 10982 10984 10985 10987 10988 10989 10991 10993 10994 10996 10997 10999 11000 11000 11001 11002 11003 11004 11004 11004 11005 11005 11005 11006 11006 11006 11005 11004 11003 11002 11001 11000 10998 10997 10995 10994 10992 10991 10989 10988 10986 10984 10982 10980 10978 10977 10975 10973 10972
10910 10913 10915 10918 10919 10921 10925 10926 10926 10928 10930 10932 10934 10936 10938 10940 10942 10944 10946 10949 10951 10953 10955 10956 10958 10961 10963 10965 10966 10967 10968 10970 10973 10976 10977 10979 10979 10981 10983 10985 10986 10988 10989 10990 10992 10994 10995 10996 10997 10998 10999 11000 11001 11002 11002 11003 11003 11003 11003 11004 11004 11004 11003 11002 11001 11000 10999 10998 10997 10996 10994 10992 10991 10989 10987 10986 10984 10982 10980 10978 10977 10976 10974 10973 10971
10906 10909 10912 10913 10914 10917 10919 10920 10922 10924 10926 10927 10930 10932 10934 10936 10938 10940 10943 10945 10947 10949 10951 10953 10955 10957 10959 10961 10962 10963 10964 10967 10970 10972 10974 10976 10977 10978 10980 10982 10984 10985 10986 10988 10990 10991 10992 10994 10995 10996 10997 10998 10999 11000 11000 11001 11001 11001 11001 11001 11001 11001 11001 11000 10999 10998 10997 10996 10995 10994 10993 10991 10990 10988 10986 10985 10983 10981 10978 10977 10975 10974 10973 10971 10969
10901 10906 10908 10909 10910 10912 10914 10915 10917 10919 10922 10924 10926 10928 10930 10931 10934 10937 10939 10941 10942 10945 10947 10949 10951 10953 10954 10956 10958 10960 10962 10964 10967 10970 10971 10973 10974 10975 10978 10979 10981 10982 10983 10985 10987 10988 10989 10990 10992 10993 10994 10995 10996 10998 10998 10999 10999 10999 10999 10999 10999 10999 10998 10997 10996 10995 10995 10994 10993 10992 10991 10989 10988 10986 10985 10984 10982 10980 10978 10976 10975 10973 10972 10970 10968
10898 10901 10904 10904 10905 10907 10909 10910 10913 10914 10917 10920 10922 10923 10925 10927 10930 10932 10934 10936 10938 10940 10943 10945 10947 10948 10950 10952 10955 10958 10960 10962 10964 10966 10968 10969 10971 10972 10975 10976 10978 10979 10981 10983 10984 10985 10986 10987 10989 10990 10991 10992 10993 10995 10995 10996 10996 10996 10996 10996 10996 10996 10995 10995 10994 10993 10992 10992 10991 10990 10989 10987 10986 10984 10983 10982 10981 10979 10977 10976 10975 10973 10971 10970 10968
10893 10896 10899 10900 10900 10903 10904 10905 10907 10910 10913 10915 10917 10918 10920 10922 10925 10926 10929 10931 10933 10936 10938 10940 10942 10944 10947 10949 10952 10954 10957 10959 10961 10962 10964 10966 10967 10969 10971 10973 10974 10976 10978 10980 10981 10982 10983 10984 10986 10987 10988 10989 10990 10991 10992 10993 10993 10994 10994 10993 10993 10993 10993 10992 10991 10991 10990 10989 10988 10987 10986 10985 10984 10982 10981 10980 10979 10977 10976 10975 10974 10973 10971 10969 10967
10888 10890 10893 10894 10896 10898 10899 10900 10902 10904 10907 10910 10911 10913 10915 10918 10919 10921 10924 10926 10929 10931 10934 10936 10938 10941 10944 10946 10948 10950 10953 10955 10957 10958 10960 10962 10964 10966 10968 10969 10971 10973 10975 10976 10977 10978 10979 10981 10982 10983 10984 10985 10987 10988 10989 10990 10990 10991 10991 10991 10990 10990 10990 10989 10989 10988 10988 10987 10986 10985 10984 10983 10981 10980 10978 10977 10976 10975 10973 10973 10972 10971 10969 10968 10966
10881 10884 10887 10889 10892 10894 10895 10896 10897 10899 10902 10904 10906 10908 10911 10913 10914 10916 10919 10922 10924 10927 10929 10932 10935 10938 10940 10942 10944 10946 10948 10951 10953 10954 10956 10958 10960 10962 10963 10965 10967 10969 10971 10972 10973 10974 10976 10978 10978 10979 10980 10982 10983 10984 10985 10986 10987 10987 10987 10987 10987 10987 10987 10986 10986 10985 10985 10984 10983 10982 10982 10980 10979 10977 10976 10974 10973 10971 10970 10970 10969 10969 10967 10965 10964
10874 10878 10881 10884 10887 10888 10889 10891 10892 10894 10896 10898 10900 10903 10905 10907 10908 10911 10915 10917 10919 10922 10924 10928 10931 10934 10936 10938 10940 10942 10944 10946 10948 10950 10952 10954 10956 10957 10958 10960 10962 10965 10967 10968 10968 10970 10972 10974 10974 10975 10976 10978 10979 10980 10981 10982 10982 10983 10983 10983 10983 10983 10983 10982 10982 10982 10981 10981 10980 10980 10979 10978 10976 10975 10973 10972 10971 10969 10968 10967 10966 10966 10964 10963 10962
10869 10873 10875 10878 10881 10882 10883 10886 10887 10888 10890 10893 10895 10898 10900 10902 10904 10907 10910 10912 10915 10918 10921 10924 10927 10930 10932 10934 10936 10938 10939 10942 10944 10946 10948 10949 10950 10952 10954 10956 10958 10960 10961 10962 10964 10966 10968 10969 10970 10971 10972 10973 10974 10975 10976 10977 10978 10978 10978 10978 10979 10979 10979 10979 10978 10978 10977 10977 10977 10976 10976 10975 10973 10972 10971 10970 10968 10967 10965 10964 10963 10963 10962 10960 10960
10863 10867 10869 10873 10875 10876 10879 10880 10882 10883 10886 10888 10891 10894 10897 10899 10900 10903 10905 10907 10910 10913 10917 10921 10923 10925 10928 10930 10932 10934 10935 10937 10939 10941 10943 10944 10945 10947 10949 10951 10953 10955 10956 10957 10959 10961 10963 10964 10965 10967 10968 10968 10969 10971 10972 10972 10973 10973 10973 10973 10974 10975 10975 10974 10974 10974 10973 10973 10973 10973 10972 10971 10970 10969 10968 10967 10965 10964 10962 10961 10960 10960 10959 10958 10958
10857 10861 10864 10866 10868 10871 10873 10874 10876 10879 10881 10883 10886 10889 10892 10894 10896 10898 10900 10902 10905 10908 10912 10916 10918 10920 10923 10925 10927 10929 10931 10933 10935 10936 10938 10939 10941 10943 10945 10947 10948 10950 10951 10952 10954 10955 10957 10959 10961 10962 10963 10963 10965 10966 10967 10968 10968 10968 10968 10968 10969 10970 10970 10970 10969 10969 10969 10969 10969 10969 10969 10968 10967 10966 10965 10964 10962 10961 10959 10958 10957 10957 10956 10955 10955
10852 10856 10859 10861 10863 10866 10868 10869 10872 10875 10876 10878 10881 10884 10887 10889 10891 10893 10895 10897 10900 10902 10906 10909 10912 10914 10917 10920 10922 10925 10927 10929 10931 10932 10933 10935 10936 10938 10940 10942 10943 10944 10946 10947 10948 10950 10952 10954 10955 10956 10957 10958 10960 10961 10962 10963 10963 10963 10963 10963 10964 10965 10965 10965 10965 10965 10965 10965 10965 10965 10965 10965 10964 10963 10962 10961 10959 10957 10956 10955 10954 10953 10952 10951 10951
10847 10851 10853 10855 10858 10861 10862 10864 10867 10870 10872 10873 10876 10879 10882 10884 10885 10887 10889 10891 10894 10896 10899 10902 10906 10909 10912 10914 10917 10920 10922 10924 10926 10927 10929 10931 10932 10934 10935 10937 10938 10939 10940 10941 10943 10945 10946 10948 10949 10950 10951 10953 10955 10956 10957 10958 10958 10958 10958 10958 10959 10959 10959 10960 10961 10961 10960 10960 10960 10960 10961 10960 10960 10960 10959 10958 10956 10954 10952 10951 10950 10949 10948 10946 10946
10841 10844 10847 10850 10852 10854 10856 10858 10861 10864 10867 10868 10871 10874 10876 10878 10880 10882 10884 10886 10888 10890 10894 10897 10900 10903 10906 10909 10912 10915 10917 10920 10922 10923 10925 10927 10928 10929 10930 10931 10932 10933 10935 10936 10938 10939 10939 10941 10942 10944 10945 10947 10949 10951 10952 10952 10953 10954 10953 10953 10953 10953 10953 10955 10957 10956 10955 10955 10955 10956 10956 10955 10956 10956 10955 10954 10953 10951 10949 10948 10947 10946 10943 10941 10941
10834 10838 10841 10844 10847 10849 10851 10853 10856 10859 10861 10864 10867 10869 10871 10872 10875 10878 10880 10881 10883 10886 10889 10892 10895 10898 10900 10903 10906 10909 10912 10915 10917 10919 10921 10922 10924 10925 10925 10926 10927 10928 10929 10931 10931 10932 10933 10935 10936 10938 10939 10941 10943 10945 10946 10947 10948 10949 10949 10948 10948 10947 10947 10950 10952 10951 10950 10950 10950 10951 10952 10951 10950 10950 10950 10950 10949 10947 10945 10944 10944 10943 10940 10936 10936
10828 10832 10836 10838 10841 10844 10846 10848 10851 10854 10857 10860 10862 10864 10866 10868 10871 10874 10876 10877 10879 10881 10884 10887 10890 10892 10895 10898 10901 10904 10908 10910 10913 10915 10916 10918 10919 10920 10920 10921 10922 10923 10924 10925 10926 10926 10927 10929 10930 10932 10933 10935 10936 10939 10940 10941 10942 10943 10944 10944 10942 10941 10942 10945 10946 10945 10944 10945 10946 10947 10947 10946 10946 10945 10946 10946 10944 10944 10942 10940 10941 10942 10938 10933 10931
10822 10826 10830 10833 10836 10839 10841 10844 10846 10849 10852 10855 10857 10859 10861 10863 10866 10868 10869 10872 10874 10876 10879 10881 10883 10886 10889 10893 10896 10900 10903 10906 10908 10910 10911 10912 10914 10914 10915 10916 10916 10917 10918 10919 10920 10920 10921 10923 10924 10926 10927 10928 10930 10932 10934 10936 10937 10937 10938 10938 10937 10935 10937 10939 10939 10938 10938 10939 10940 10941 10942 10942 10941 10941 10941 10941 10940 10940 10939 10937 10938 10939 10938 10936 10933
10816 10820 10825 10828 10831 10834 10837 10839 10841 10844 10847 10850 10852 10854 10856 10858 10860 10861 10863 10866 10869 10871 10873 10875 10878 10881 10884 10887 10891 10894 10897 10900 10902 10904 10905 10906 10908 10909 10909 10910 10911 10911 10912 10913 10913 10914 10915 10917 10918 10920 10921 10922 10924 10926 10928 10930 10931 10932 10932 10932 10931 10930 10931 10933 10932 10932 10932 10933 10935 10936 10936 10936 10936 10936 10936 10936 10936 10935 10934 10933 10933 10935 10937 10937 10935
10810 10815 10819 10823 10826 10829 10831 10833 10836 10839 10842 10844 10846 10848 10850 10853 10855 10855 10857 10859 10862 10864 10867 10869 10872 10875 10878 10881 10884 10887 10890 10893 10895 10896 10898 10899 10901 10902 10903 10904 10904 10905 10906 10906 10908 10909 10910 10911 10913 10914 10915 10917 10918 10920 10922 10923 10925 10926 10926 10925 10925 10925 10926 10927 10926 10926 10927 10928 10929 10930 10930 10930 10930 10930 10930 10930 10930 10929 10929 10929 10928 10929 10933 10934 10933
10805 10809 10813 10817 10821 10823 10825 10827 10830 10833 10836 10839 10841 10843 10845 10847 10849 10850 10851 10853 10856 10859 10861 10863 10866 10869 10871 10874 10877 10880 10883 10885 10887 10889 10890 10892 10894 10896 10896 10897 10898 10899 10900 10901 10902 10904 10905 10906 10907 10909 10910 10912 10914 10915 10916 10917 10918 10920 10920 10919 10919 10920 10921 10922 10921 10920 10921 10923 10923 10923 10923 10923 10923 10924 10924 10924 10924 10924 10923 10924 10923 10923 10926 10928 10928
10798 10803 10807 10811 10815 10818 10820 10822 10824 10827 10831 10834 10836 10838 10840 10842 10844 10845 10846 10848 10851 10853 10856 10858 10860 10862 10865 10867 10870 10873 10876 10878 10880 10882 10884 10886 10888 10889 10889 10891 10892 10893 10894 10896 10898 10900 10901 10902 10903 10905 10906 10908 10909 10910 10910 10911 10912 10914 10914 10914 10914 10915 10916 10916 10916 10915 10916 10918 10918 10917 10917 10917 10917 10918 10918 10917 10918 10918 10917 10917 10917 10917 10918 10919 10920
10792 10796 10801 10805 10809 10812 10815 10817 10820 10823 10826 10828 10831 10833 10835 10837 10839 10841 10842 10844 10846 10848 10850 10852 10854 10856 10859 10861 10863 10866 10869 10871 10874 10876 10878 10880 10881 10882 10883 10885 10887 10888 10890 10891 10893 10895 10896 10898 10899 10900 10902 10903 10904 10904 10904 10905 10907 10908 10909 10910 10910 10910 10910 10911 10911 10911 10912 10913 10912 10911 10911 10911 10912 10912 10912 10912 10912 10912 10911 10910 10910 10910 10910 10911 10911
10785 10791 10795 10799 10803 10807 10810 10813 10816 10818 10821 10824 10826 10828 10830 10832 10834 10836 10838 10840 10842 10843 10845 10847 10849 10851 10853 10854 10857 10860 10862 10865 10867 10869 10871 10873 10875 10876 10878 10879 10881 10883 10884 10886 10888 10890 10891 10893 10894 10895 10897 10897 10897 10898 10899 10900 10901 10902 10903 10904 10905 10905 10906 10906 10906 10906 10907 10907 10907 10906 10906 10906 10907 10907 10906 10906 10905 10905 10904 10904 10903 10903 10903 10903 10903
10779 10784 10789 10793 10797 10801 10805 10808 10811 10814 10816 10818 10821 10823 10826 10828 10830 10832 10834 10836 10838 10839 10841 10843 10845 10846 10848 10850 10852 10854 10856 10859 10861 10863 10865 10867 10868 10870 10872 10874 10876 10878 10879 10881 10882 10884 10886 10887 10889 10890 10891 10891 10892 10893 10894 10895 10896 10896 10897 10898 10899 10899 10900 10901 10901 10901 10902 10902 10902 10902 10901 10901 10901 10901 10900 10899 10898 10898 10897 10897 10896 10896 10896 10896 10895
10772 10778 10783 10788 10792 10796 10800 10803 10806 10808 10811 10813 10816 10818 10821 10823 10825 10827 10830 10831 10833 10835 10837 10839 10840 10842 10844 10846 10847 10848 10851 10853 10855 10857 10859 10861 10862 10864 10866 10868 10870 10872 10873 10875 10876 10878 10879 10881 10882 10883 10884 10886 10886 10887 10888 10889 10890 10890 10891 10891 10892 10893 10893 10894 10895 10896 10896 10897 10897 10896 10896 10895 10894 10894 10893 10892 10891 10891 10890 10890 10890 10890 10889 10888 10887
10766 10770 10776 10782 10786 10790 10793 10797 10800 10802 10805 10807 10810 10813 10815 10818 10820 10822 10825 10827 10829 10831 10832 10834 10836 10838 10839 10841 10842 10843 10845 10847 10849 10851 10853 10854 10856 10857 10859 10861 10863 10866 10867 10869 10870 10871 10873 10874 10875 10877 10878 10880 10880 10881 10883 10883 10883 10884 10884 10885 10885 10886 10887 10888 10890 10890 10891 10891 10891 10890 10889 10888 10887 10886 10886 10885 10884 10884 10883 10883 10883 10883 10882 10881 10880